Location: Bessat
(45.8735°N, 1.9924°E)
Time: 14:07:59
(UTC+00:00)

Cosmos 372 Rocket - Pass Details

Date: 11 May 2021
Orbit: 738 x 768 km, 74.1° (Epoch: 19 June)

Event Time Altitude Azimuth Distance (km) Brightness Sun altitude
Exits shadow 23:06:58 82° 152° (SSE) 751 3.7 -25.3°
Maximum altitude 23:07:07 84° 111° (ESE) 748 3.8 -25.3°
Drops below altitude 10° 23:12:14 10° 23° (NNE) 2,255 7.2 -25.5°
Sets 23:14:35 0° 23° (NNE) 3,184 8.1 -25.5°
